"Pseudo-MPEC" for P11gRon

Created 2021 Jun 11 7:07:17 UT using Find_Orb

Click here for an explanation of pseudo-MPECs

 
 Astrometry: 
     P11gRon  C2021 06 087T'vxLV;B0!6Z,Dtd\bKm@k++.rg(cuEkrC=(998:PLtFd1/5k0\F51
     P11gRon  C2021 06 08.;EZ\MCXrh*p+2cy%WOQW#Rv4;e%qO%ja9'h7_a%i1eUtd4QmfbpF51
     P11gRon  C2021 06 08r8+3$d*SdxgW%VHqNa\m01Q;$qAstrometry#NiYtx`'$JYF\8V*F51
     P11gRon |C2021 06 09VM2=c%Zsje4H\kw%a0'[.A=gFv3(5i2EpEcY$wRIb@qx1H#sY^.A807
     P11gRon |C2021 06 09%%.Ku-kdt6Zsredacted;ymwPyF8?rj+@m$SQfu1l]6HYD9C)X7]807
     P11gRon |C2021 06 09%h3%ix;p)[da5oNdtG=vZ;5$3r6JU;litclick5osPe2)!yF?Y@@807
     P11gRon ^C2021 06 09.25332114 01 14.518-19 27 46.69   ~69Bb 22.45GVNEOCP568
     P11gRon ^C2021 06 09.25453414 01 14.392-19 27 47.54   ~69Bb 22.68GVNEOCP568
     P11gRon ^C2021 06 09.25574314 01 14.265-19 27 48.41   ~69Bb 22.45GVNEOCP568
     P11gRon |C2021 06 10P!k+Y$Wo(3du90K2ajhMN,('RG`Lg7Bh('Ga_pir5NNOy`jC(qq5807
     P11gRon |C2021 06 11yxA_HgPherej02r1sW\c)q'WE00_SgK%VJfor#RJlljYgRMIoV@w807
     P11gRon |C2021 06 11g?aQ$+Fgd8g.b^..*ydcoRC!eSvbAoJLtf1texplanationSuPE=807
     P11gRon KC2021 06 11.17167 13 58 05.16 -19 51 21.2    ~6B5q       VNEOCP291
     P11gRon KC2021 06 11.19334 13 58 03.02 -19 51 36.9    ~6B5q 22.2 GVNEOCP291
     P11gRon KC2021 06 11.21502 13 58 00.98 -19 51 51.8    ~6B5q       VNEOCP291

Station data:
(291) LPL/Spacewatch II  (N31.961669 W111.599905)  US/Arizona.  Observers J.
   V. Scotti, R. S. McMillan. 1.8-m f/2.7 reflector + CCD.
(568) Mauna Kea  (N19.826116 W155.472200)  US/Hawaii.
(807) Cerro Tololo Observatory, La Serena  (S30.169136 W70.805900)  Chile.
(F51) Pan-STARRS 1, Haleakala  (N20.707235 W156.255910)  US/Hawaii.
   Observers N. Primak, A. Schultz, S. Watters, J. Thiel, T. Goggia. Measurer
   PS1 Science Consortium. 1.8-m Ritchey-Chrétien + CCD.

Orbital elements:  P11gRon
   Perihelion 2021 Sep 28.289049 +/- 1.55381 TT =  6:56:13 (JD 2459485.789049)
Epoch 2021 Jun 11.0 TT = JDT 2459376.5   Earth MOID: 0.2396   Ma: 0.0468
M 316.11150230 +/- 1.2030987        (J2000 ecliptic)          AutoNEOCP
n   0.40158184 +/- 0.00755518       Peri.  280.46942 +/- 0.7517275
a   1.81950534 +/- 0.0228189        Node    53.01365 +/- 0.0690372
e   0.4132927 +/- 0.00672577        Incl.   16.11978 +/- 0.3775848
P   2.45/896.44d           H 21.6   G  0.15   U  9.5  
q 1.06751692 +/- 0.0014462    Q 2.57149377 +/- 0.0442338
From 15 observations 2021 June 8-11; mean residual 0".44
Residuals in arcseconds: 
210608 F51  .09-  .11-    210609 807  .11+  .12-    210611 807  .25+  .25-    
210608 F51  .06+  .12-    210609 568  .03-  .02-    210611 807  .57-  .31+    
210608 F51  .06+  .00     210609 568  .03+  .03+    210611 291  1.0-  .57-    
210609 807  .30-  .48+    210609 568  .07+  .05+    210611 291  .41-  .24-    
210609 807  .11+  .07-    210610 807  .14+  .20-    210611 291  1.6+  .83+    

Ephemerides (geocentric):
Date (UTC) HH   RA              Dec         delta   r     elong  mag " sig PA
---- -- -- --  -------------   -----------  ------ ------ -----  --- ---- ---
2021 06 11 07  13 57 53.815   -19 52 38.42  .61290 1.5051 133.6 22.7 .079  95
2021 06 11 08  13 57 49.861   -19 53 09.37  .61293 1.5048 133.6 22.7 .096 102
2021 06 11 09  13 57 45.913   -19 53 40.33  .61297 1.5046 133.5 22.7 .115 106
2021 06 11 10  13 57 41.971   -19 54 11.29  .61300 1.5043 133.5 22.7 .134 110
2021 06 11 11  13 57 38.034   -19 54 42.27  .61303 1.5041 133.4 22.7 .154 113
2021 06 11 12  13 57 34.104   -19 55 13.26  .61306 1.5039 133.3 22.8 .176 115
2021 06 11 13  13 57 30.179   -19 55 44.26  .61310 1.5036 133.3 22.8 .197 116
2021 06 11 14  13 57 26.260   -19 56 15.27  .61313 1.5034 133.2 22.8 .220 118
2021 06 11 15  13 57 22.347   -19 56 46.29  .61316 1.5031 133.2 22.8 .243 119
2021 06 11 16  13 57 18.440   -19 57 17.33  .61320 1.5029 133.1 22.8 .267 120
2021 06 11 17  13 57 14.539   -19 57 48.37  .61323 1.5027 133.1 22.8 .292 121
2021 06 11 18  13 57 10.643   -19 58 19.43  .61326 1.5024 133.0 22.8 .317 121
2021 06 11 19  13 57 06.754   -19 58 50.50  .61330 1.5022 133.0 22.8 .342 122
2021 06 11 20  13 57 02.870   -19 59 21.57  .61333 1.5019 132.9 22.8 .369 122
2021 06 11 21  13 56 58.993   -19 59 52.66  .61337 1.5017 132.9 22.8 .395 123
2021 06 11 22  13 56 55.121   -20 00 23.76  .61340 1.5015 132.8 22.8 .423 123
2021 06 11 23  13 56 51.255   -20 00 54.88  .61344 1.5012 132.8 22.8 .451 124
2021 06 12 00  13 56 47.396   -20 01 26.00  .61347 1.5010 132.7 22.8 .480 124
2021 06 12 01  13 56 43.542   -20 01 57.13  .61351 1.5007 132.7 22.8 .509 124
2021 06 12 02  13 56 39.694   -20 02 28.28  .61354 1.5005 132.6 22.8 .539 125
2021 06 12 03  13 56 35.852   -20 02 59.43  .61358 1.5002 132.6 22.8 .569 125
2021 06 12 04  13 56 32.016   -20 03 30.60  .61362 1.5000 132.5 22.8 .600 125
2021 06 12 05  13 56 28.186   -20 04 01.78  .61365 1.4998 132.5 22.8 .631 125
2021 06 12 06  13 56 24.361   -20 04 32.97  .61369 1.4995 132.4 22.8 .664 125
2021 06 12 07  13 56 20.543   -20 05 04.17  .61373 1.4993 132.4 22.8 .696 126
2021 06 12 08  13 56 16.731   -20 05 35.39  .61376 1.4990 132.3 22.8 .730 126
2021 06 12 09  13 56 12.925   -20 06 06.61  .61380 1.4988 132.3 22.8 .763 126
2021 06 12 10  13 56 09.125   -20 06 37.84  .61384 1.4986 132.2 22.8 .798 126
2021 06 12 11  13 56 05.330   -20 07 09.09  .61387 1.4983 132.2 22.8 .833 126
2021 06 12 12  13 56 01.542   -20 07 40.35  .61391 1.4981 132.1 22.8 .868 126
2021 06 12 13  13 55 57.760   -20 08 11.62  .61395 1.4978 132.1 22.8 .905 126
2021 06 12 14  13 55 53.984   -20 08 42.90  .61399 1.4976 132.0 22.8 .941 127
2021 06 12 15  13 55 50.213   -20 09 14.19  .61402 1.4974 131.9 22.8 .979 127
2021 06 12 16  13 55 46.449   -20 09 45.50  .61406 1.4971 131.9 22.8 1.02 127
2021 06 12 17  13 55 42.691   -20 10 16.81  .61410 1.4969 131.8 22.8 1.06 127
2021 06 12 18  13 55 38.939   -20 10 48.14  .61414 1.4966 131.8 22.8 1.09 127
2021 06 12 19  13 55 35.193   -20 11 19.48  .61418 1.4964 131.7 22.8 1.13 127
2021 06 12 20  13 55 31.453   -20 11 50.83  .61422 1.4961 131.7 22.8 1.17 127
2021 06 12 21  13 55 27.719   -20 12 22.19  .61426 1.4959 131.6 22.8 1.21 127
2021 06 12 22  13 55 23.991   -20 12 53.56  .61430 1.4957 131.6 22.8 1.26 127
2021 06 12 23  13 55 20.269   -20 13 24.94  .61434 1.4954 131.5 22.8 1.30 127
2021 06 13 00  13 55 16.553   -20 13 56.34  .61438 1.4952 131.5 22.8 1.34 127
2021 06 13 01  13 55 12.843   -20 14 27.75  .61442 1.4949 131.4 22.8 1.38 127
2021 06 13 02  13 55 09.139   -20 14 59.16  .61446 1.4947 131.4 22.8 1.43 127
2021 06 13 03  13 55 05.442   -20 15 30.59  .61450 1.4945 131.3 22.8 1.47 127
2021 06 13 04  13 55 01.750   -20 16 02.04  .61454 1.4942 131.3 22.8 1.52 127
2021 06 13 05  13 54 58.065   -20 16 33.49  .61458 1.4940 131.2 22.8 1.56 128
2021 06 13 06  13 54 54.385   -20 17 04.95  .61462 1.4937 131.2 22.8 1.61 128